Deer Park, WA
on Friday, November 16, 2012

Friday
Previous Day Next Day
Daily Summary
 ActualAverageRecord
Temperature
Mean Temperature °F 34°F  
Max Temperature 43°F 41°F 52°F (2007)
Min Temperature 31°F 26°F 9°F (2011)
Degree Days
Heating Degree Days 28 31  
Month to date heating degree days 436 461  
Since 1 July heating degree days 1348 1529  
Cooling Degree Days 0 0  
Month to date cooling degree days 0 0  
Year to date cooling degree days 232 187  
Moisture
Dew Point 34°F   
Average Humidity 88    
Maximum Humidity 100    
Minimum Humidity 76    
Precipitation
Precipitation 0.00 in 0.12 in 0.41 in (2001)
Month to date precipitation 1.02 1.67  
Year to date precipitation 21.02 17.73  
Wind
Wind Speed 2 mph   
Max Wind Speed 6 mph   
Max Gust Speed 8 mph   
Visibility 10 miles   
Events     

Key: T is trace of precipitation, MM is missing value
Source: NWS Daily Summary
Time(PST)TemperatureDew PointHumidity Pressure Visibility Wind DirectionWind SpeedGust SpeedPrecipitationEvents Conditions
12:53 AM 35.1°F 32.0°F 89% 30.03 in 10.0 miles NE 4.6 mph - N/A   Partly Cloudy
1:53 AM 36.0°F 33.1°F 89% 30.03 in 10.0 miles Calm Calm - N/A   Overcast
2:53 AM 36.0°F 32.0°F 86% 30.02 in 10.0 miles Calm Calm - N/A   Overcast
3:01 AM 35.6°F 32.0°F 87% 29.98 in 10.0 miles Calm Calm - N/A   Overcast
3:28 AM 35.6°F 32.0°F 87% 29.97 in 10.0 miles Calm Calm - N/A   Overcast
3:38 AM 35.6°F 33.8°F 93% 29.97 in 10.0 miles NE 3.5 mph - N/A   Overcast
3:53 AM 36.0°F 33.1°F 89% 30.01 in 10.0 miles Calm Calm - N/A   Overcast
4:14 AM 35.6°F 33.8°F 93% 29.97 in 10.0 miles Calm Calm - N/A   Overcast
4:53 AM 35.1°F 32.0°F 89% 30.01 in 10.0 miles NNW 3.5 mph - N/A   Overcast
5:53 AM 33.1°F 30.9°F 92% 30.00 in 10.0 miles NNW 3.5 mph - N/A   Overcast
6:53 AM 30.9°F 30.0°F 96% 30.00 in 10.0 miles Calm Calm - N/A   Partly Cloudy
7:53 AM 32.0°F 32.0°F 100% 30.02 in 10.0 miles Calm Calm - N/A   Mostly Cloudy
8:53 AM 37.0°F 34.0°F 89% 30.01 in 10.0 miles North 3.5 mph - N/A   Partly Cloudy
9:53 AM 37.9°F 34.0°F 86% 30.03 in 10.0 miles Calm Calm - N/A   Overcast
10:53 AM 39.9°F 34.0°F 79% 30.02 in 10.0 miles NNE 3.5 mph - N/A   Overcast
11:53 AM 41.0°F 35.1°F 79% 30.00 in 10.0 miles Calm Calm - N/A   Mostly Cloudy
12:53 PM 43.0°F 36.0°F 76% 29.99 in 10.0 miles Calm Calm - N/A   Overcast
1:53 PM 43.0°F 36.0°F 76% 29.99 in 10.0 miles Calm Calm - N/A   Mostly Cloudy
2:53 PM 43.0°F 36.0°F 76% 29.98 in 10.0 miles North 3.5 mph - N/A   Clear
3:53 PM 39.9°F 36.0°F 86% 29.99 in 10.0 miles North 3.5 mph - N/A   Scattered Clouds
4:53 PM 39.0°F 36.0°F 89% 29.99 in 10.0 miles North 5.8 mph - N/A   Overcast
5:53 PM 37.9°F 36.0°F 93% 29.99 in 10.0 miles Calm Calm - N/A   Mostly Cloudy
6:53 PM 36.0°F 34.0°F 93% 29.99 in 10.0 miles North 3.5 mph - N/A   Clear
7:53 PM 35.1°F 34.0°F 96% 29.99 in 10.0 miles North 4.6 mph - N/A   Partly Cloudy
8:53 PM 34.0°F 33.1°F 96% 29.99 in 10.0 miles Calm Calm - N/A   Clear
9:53 PM 32.0°F 32.0°F 100% 29.98 in 10.0 miles NNE 4.6 mph - N/A   Mostly Cloudy
10:53 PM 36.0°F 34.0°F 93% 29.97 in 10.0 miles NNW 4.6 mph - N/A   Overcast
11:53 PM 36.0°F 34.0°F 93% 29.96 in 10.0 miles North 5.8 mph - N/A   Overcast
Moon Phase
Nov. 16 Nov. 20 Nov. 28 Dec. 06 Dec. 13
Sunrise:06:58 AM (PST) Moon Rise:10:00 AM (PST)11/16
Sunset:04:10 PM (PST) Moon Set:07:12 PM (PST)11/16

Copyright © 2014 The Weather Underground, Inc.